period_start,C,m1,H,J0,J1,J2,J3,J4,J5,JA,JB,JC,JD,JJ,JK,JN,#
2017-06-05 00:04:25,0.00,0.04,0.00,23.27,27.31,30.02,13.98,45.80,1020.52,2030.99,3466.96,3094.99,3550.00,600.14,598.06,12.62,0000 0000 0000 0000 000000
2017-06-05 00:09:26,0.00,0.04,0.00,23.27,27.32,30.03,13.95,45.77,1020.52,2030.99,3466.97,3094.99,3550.00,599.95,597.78,12.67,0000 0000 0000 0000 000000
2017-06-05 00:14:27,-0.00,0.04,0.00,23.27,27.32,30.04,13.95,45.71,1020.52,2030.97,3466.97,3094.99,3550.00,600.03,597.88,12.72,0000 0000 0000 0000 000000
2017-06-05 00:19:29,0.00,0.04,0.00,23.28,27.32,30.02,13.94,45.72,1020.52,2030.97,3466.92,3094.99,3550.00,599.87,597.68,12.77,0000 0000 0000 0000 000000
2017-06-05 00:24:30,0.00,0.04,0.00,23.30,27.33,30.03,13.95,45.67,1020.52,2030.97,3466.88,3094.99,3549.99,599.93,597.62,12.82,0000 0000 0000 0000 000000
2017-06-05 00:29:31,0.00,0.04,0.00,23.32,27.34,30.05,13.92,45.52,1020.52,2030.96,3466.69,3094.99,3549.97,600.18,597.85,12.87,0000 0000 0000 0000 000000
2017-06-05 00:34:33,0.00,0.04,0.00,23.34,27.35,30.04,13.96,45.60,1020.52,2030.95,3466.49,3094.99,3549.93,600.10,597.80,12.92,0000 0000 0000 0000 000000
2017-06-05 00:39:34,-0.00,0.04,0.00,23.35,27.35,30.05,13.91,45.52,1020.52,2030.95,3466.40,3094.96,3549.89,599.95,597.57,12.97,0000 0000 0000 0000 000000
2017-06-05 00:44:35,0.01,0.04,0.00,23.36,27.37,30.05,13.96,45.73,1020.52,2030.93,3466.08,3094.91,3549.72,599.91,597.45,13.02,0000 0000 0000 0000 000000
2017-06-05 00:49:36,0.01,0.04,0.00,23.39,27.37,30.06,13.98,45.67,1020.52,2030.79,3466.01,3094.51,3549.24,599.79,597.42,13.07,0000 0000 0000 0000 000000
2017-06-05 00:54:38,0.01,0.04,0.00,23.42,27.39,30.07,13.95,45.65,1020.52,2030.77,3466.01,3094.24,3549.06,600.05,597.47,13.12,0000 0000 0000 0000 000000
2017-06-05 00:59:39,-0.01,0.04,0.00,23.43,27.40,30.08,14.02,45.76,1020.52,2030.72,3466.00,3094.15,3549.03,599.74,597.19,13.17,0000 0000 0000 0000 000000
2017-06-05 01:04:41,-0.05,0.03,0.00,23.45,27.42,30.09,14.00,45.80,1020.51,2030.22,3466.00,3094.03,3549.00,600.08,597.63,13.22,0000 0000 0000 0000 000000
2017-06-05 01:09:42,-0.00,0.03,0.00,23.47,27.42,30.10,13.96,45.85,1020.40,2030.09,3466.00,3094.02,3549.00,599.85,597.11,13.27,0000 0000 0000 0000 000000
2017-06-05 01:14:43,0.00,0.03,0.00,23.49,27.45,30.11,13.97,45.79,1020.33,2030.06,3465.99,3094.00,3549.00,600.01,597.15,13.32,0000 0000 0000 0000 000000
2017-06-05 01:19:45,0.00,0.03,0.00,23.51,27.45,30.15,14.01,45.83,1020.41,2030.03,3465.83,3094.00,3548.96,600.56,597.71,13.37,0000 0000 0000 0000 000000
2017-06-05 01:24:46,0.00,0.03,0.00,23.52,27.47,30.16,13.93,45.76,1020.41,2030.05,3465.50,3093.99,3548.92,599.91,597.10,13.42,0000 0000 0000 0000 000000
2017-06-05 01:29:47,0.01,0.04,0.00,23.56,27.48,30.17,13.96,45.81,1020.42,2030.01,3465.25,3093.98,3548.42,599.89,596.95,13.47,0000 0000 0000 0000 000000
2017-06-05 01:34:48,0.00,0.04,0.00,23.58,27.50,30.17,13.96,45.71,1020.41,2030.00,3465.01,3093.83,3548.05,600.37,597.46,13.52,0000 0000 0000 0000 000000
2017-06-05 01:39:50,0.01,0.04,0.00,23.62,27.51,30.19,13.96,45.55,1020.40,2030.00,3465.00,3093.36,3548.01,599.69,596.75,13.57,0000 0000 0000 0000 000000
2017-06-05 01:44:51,0.00,0.04,0.00,23.64,27.52,30.20,13.92,45.77,1020.35,2030.00,3465.00,3093.13,3548.00,600.17,597.12,13.62,0000 0000 0000 0000 000000
2017-06-05 01:49:52,0.00,0.04,0.00,23.67,27.55,30.22,13.93,45.67,1020.39,2030.00,3465.00,3093.04,3547.99,599.90,596.75,13.67,0000 0000 0000 0000 000000
2017-06-05 01:54:54,0.00,0.04,0.00,23.69,27.56,30.23,13.96,45.68,1020.34,2029.99,3464.97,3093.01,3547.97,600.03,596.86,13.72,0000 0000 0000 0000 000000
2017-06-05 01:59:55,0.00,0.04,0.00,23.72,27.58,30.25,13.86,45.58,1020.29,2029.97,3464.93,3093.00,3547.77,599.90,596.76,13.77,0000 0000 0000 0000 000000
2017-06-05 02:04:56,0.01,0.04,0.00,23.76,27.60,30.27,13.96,45.73,1020.40,2029.95,3464.60,3093.00,3547.28,600.11,596.83,13.82,0000 0000 0000 0000 000000
2017-06-05 02:09:57,-0.01,0.04,0.00,23.78,27.62,30.29,13.96,45.76,1020.46,2029.76,3464.06,3092.96,3547.02,599.87,596.51,13.88,0000 0000 0000 0000 000000
2017-06-05 02:14:58,0.02,0.04,0.00,23.81,27.64,30.31,13.97,45.56,1020.48,2029.87,3464.00,3092.83,3547.01,600.20,596.91,13.93,0000 0000 0000 0000 000000
2017-06-05 02:19:59,-0.02,0.04,0.00,23.84,27.66,30.33,13.94,45.69,1020.45,2029.60,3463.99,3092.28,3547.00,599.89,596.48,13.98,0000 0000 0000 0000 000000
2017-06-05 02:25:01,-0.02,0.04,0.00,23.87,27.68,30.34,14.03,45.63,1020.51,2029.24,3463.72,3092.02,3546.89,600.51,597.05,14.03,0000 0000 0000 0000 000000
2017-06-05 02:30:02,0.00,0.04,0.00,23.90,27.70,30.37,13.94,45.67,1020.52,2029.06,3463.47,3092.00,3546.47,599.98,596.49,14.08,0000 0000 0000 0000 000000
2017-06-05 02:35:03,0.01,0.04,0.00,23.91,27.72,30.39,14.03,45.87,1020.52,2029.02,3463.04,3091.99,3546.06,599.92,596.37,14.13,0000 0000 0000 0000 000000
2017-06-05 02:40:04,0.00,0.04,0.00,23.95,27.75,30.40,13.89,45.70,1020.51,2029.01,3463.00,3091.96,3546.00,599.80,596.25,14.18,0000 0000 0000 0000 000000
2017-06-05 02:45:05,0.00,0.04,0.00,23.98,27.76,30.43,13.92,45.68,1020.49,2029.00,3463.00,3091.81,3545.99,600.09,596.40,14.23,0000 0000 0000 0000 000000
2017-06-05 02:50:07,0.01,0.04,0.00,24.02,27.79,30.45,13.95,45.72,1020.52,2029.00,3462.94,3091.45,3545.99,600.15,596.48,14.28,0000 0000 0000 0000 000000
2017-06-05 02:55:08,0.02,0.04,0.00,24.07,27.81,30.47,13.98,45.60,1020.52,2029.00,3462.54,3091.03,3545.58,600.36,596.51,14.33,0000 0000 0000 0000 000000
2017-06-05 03:00:09,0.01,0.04,0.00,24.10,27.84,30.50,13.87,45.61,1020.52,2028.99,3462.09,3091.00,3545.05,599.92,596.06,14.38,0000 0000 0000 0000 000000
2017-06-05 03:05:11,0.00,0.04,0.00,24.12,27.86,30.52,13.87,45.53,1020.52,2028.98,3462.01,3090.99,3545.01,599.93,595.95,14.43,0000 0000 0000 0000 000000
2017-06-05 03:10:12,-0.01,0.04,0.00,24.16,27.89,30.55,13.91,45.67,1020.52,2028.89,3462.00,3090.84,3545.00,599.93,595.79,14.48,0000 0000 0000 0000 000000
2017-06-05 03:15:13,0.03,0.04,0.00,24.21,27.91,30.55,13.89,45.80,1020.52,2028.78,3461.67,3090.22,3544.70,600.10,596.00,14.53,0000 0000 0000 0000 000000
2017-06-05 03:20:15,-0.01,0.04,0.00,24.25,27.94,30.60,13.90,45.53,1020.52,2028.36,3461.11,3090.00,3544.09,599.84,595.64,14.58,0000 0000 0000 0000 000000
2017-06-05 03:25:16,-0.03,0.04,0.00,24.30,27.97,30.61,13.90,45.67,1020.52,2028.13,3461.01,3090.00,3544.01,600.01,595.78,14.63,0000 0000 0000 0000 000000
2017-06-05 03:30:17,-0.00,0.04,0.00,24.34,28.00,30.64,14.00,45.89,1020.53,2028.01,3460.99,3089.95,3543.98,600.27,595.89,14.68,0000 0000 0000 0000 000000
2017-06-05 03:35:18,0.04,0.04,0.00,24.38,28.03,30.67,13.94,45.67,1020.53,2028.01,3460.35,3089.28,3543.59,600.09,595.74,14.73,0000 0000 0000 0000 000000
2017-06-05 03:40:20,0.01,0.04,0.00,24.41,28.06,30.70,13.86,45.71,1020.53,2028.01,3460.04,3089.01,3543.04,600.23,595.80,14.78,0000 0000 0000 0000 000000
2017-06-05 03:45:21,0.00,0.04,0.00,24.45,28.09,30.73,13.83,45.63,1020.53,2028.00,3460.00,3089.00,3542.99,599.74,595.00,14.83,0000 0000 0000 0000 000000
2017-06-05 03:50:22,0.00,0.04,0.00,24.51,28.12,30.76,13.89,45.60,1020.54,2027.99,3460.00,3088.98,3542.68,600.40,595.76,14.88,0000 0000 0000 0000 000000
2017-06-05 03:55:23,-0.00,0.04,0.00,24.55,28.15,30.79,13.87,45.48,1020.52,2027.83,3459.94,3088.61,3542.09,600.01,595.18,14.93,0000 0000 0000 0000 000000
2017-06-05 04:00:24,-0.05,0.04,0.00,24.59,28.17,30.82,13.89,45.55,1020.52,2027.18,3459.72,3088.06,3541.99,600.23,595.40,14.98,0000 0000 0000 0000 000000
2017-06-05 04:05:26,0.00,0.04,0.00,24.64,28.21,30.85,13.82,45.66,1020.52,2027.01,3459.10,3088.00,3541.87,600.15,595.21,15.03,0000 0000 0000 0000 000000
2017-06-05 04:10:27,0.01,0.04,0.00,24.67,28.24,30.88,13.87,45.60,1020.52,2027.00,3458.98,3087.95,3541.30,599.84,594.83,15.08,0000 0000 0000 0000 000000
2017-06-05 04:15:28,0.03,0.04,0.00,24.71,28.27,30.90,13.89,45.61,1020.52,2027.00,3458.47,3087.36,3541.00,600.01,594.92,15.13,0000 0000 0000 0000 000000
2017-06-05 04:20:30,0.01,0.04,0.00,24.75,28.31,30.95,13.84,45.53,1020.52,2026.99,3458.14,3087.02,3540.87,599.92,594.76,15.18,0000 0000 0000 0000 000000
2017-06-05 04:25:31,0.00,0.04,0.00,24.80,28.34,30.98,13.84,45.54,1020.52,2026.94,3458.01,3087.00,3540.16,599.92,594.53,15.23,0000 0000 0000 0000 000000
2017-06-05 04:30:33,-0.02,0.04,0.00,24.84,28.37,31.02,13.82,45.76,1020.53,2026.68,3457.82,3086.83,3540.00,600.01,594.58,15.28,0000 0000 0000 0000 000000
2017-06-05 04:35:34,-0.01,0.04,0.00,24.87,28.41,31.05,13.82,45.72,1020.52,2026.19,3457.15,3086.16,3539.74,599.88,594.52,15.33,0000 0000 0000 0000 000000
2017-06-05 04:40:36,0.00,0.04,0.00,24.90,28.44,31.08,13.88,45.49,1020.52,2026.02,3457.00,3086.01,3539.12,600.31,594.76,15.38,0000 0000 0000 0000 000000
2017-06-05 04:45:37,0.00,0.04,0.00,24.92,28.47,31.11,13.84,45.41,1020.53,2026.00,3456.87,3085.98,3539.00,599.96,594.44,15.43,0000 0000 0000 0000 000000
2017-06-05 04:50:38,0.03,0.04,0.00,24.94,28.51,31.15,13.92,45.67,1020.55,2026.00,3456.08,3085.45,3538.92,599.83,594.32,15.48,0000 0000 0000 0000 000000
2017-06-05 04:55:40,0.01,0.04,0.00,24.96,28.54,31.19,13.90,45.50,1020.53,2025.99,3456.00,3085.02,3538.19,599.90,594.37,15.53,0000 0000 0000 0000 000000
2017-06-05 05:00:41,0.00,0.04,0.00,24.99,28.57,31.23,13.82,45.48,1020.54,2025.98,3455.95,3085.00,3538.00,600.03,594.37,15.58,0000 0000 0000 0000 000000
2017-06-05 05:05:42,-0.00,0.04,0.00,25.03,28.60,31.25,13.80,45.38,1020.54,2025.84,3455.48,3084.93,3537.97,599.70,593.94,15.63,0000 0000 0000 0000 000000
2017-06-05 05:10:43,-0.01,0.04,0.00,25.07,28.63,31.28,13.86,45.40,1020.55,2025.35,3455.04,3084.25,3537.29,600.15,594.30,15.68,0000 0000 0000 0000 000000
2017-06-05 05:15:44,-0.00,0.04,0.00,25.10,28.66,31.33,13.83,45.73,1020.61,2025.12,3454.94,3084.01,3537.01,599.92,594.24,15.73,0000 0000 0000 0000 000000
2017-06-05 05:20:45,0.00,0.04,0.00,25.13,28.69,31.35,13.86,45.48,1020.90,2025.04,3454.39,3083.99,3536.95,600.09,594.39,15.78,0000 0000 0000 0000 000000
2017-06-05 05:25:47,0.02,0.04,0.00,25.14,28.72,31.39,13.92,45.48,1020.92,2025.00,3454.05,3083.73,3536.56,600.19,594.29,15.83,0000 0000 0000 0000 000000
2017-06-05 05:30:48,0.02,0.04,0.00,25.16,28.75,31.43,13.88,45.53,1020.79,2025.00,3454.01,3083.18,3536.03,600.14,594.34,15.88,0000 0000 0000 0000 000000
2017-06-05 05:35:49,0.00,0.04,0.00,25.18,28.78,31.45,13.84,45.48,1020.78,2024.99,3453.99,3083.00,3535.99,600.01,594.09,15.93,0000 0000 0000 0000 000000
2017-06-05 05:40:51,-0.00,0.04,0.00,25.20,28.81,31.49,13.87,45.58,1020.81,2024.96,3453.93,3083.00,3535.92,600.15,594.23,15.98,0000 0000 0000 0000 000000
2017-06-05 05:45:52,-0.02,0.04,0.00,25.18,28.83,31.52,13.74,45.39,1020.84,2024.63,3453.43,3082.96,3535.20,599.66,593.78,16.03,0000 0000 0000 0000 000000
2017-06-05 05:50:53,-0.02,0.04,0.00,25.11,28.85,31.57,13.77,45.53,1020.87,2024.10,3453.14,3082.85,3535.01,599.67,593.94,16.08,0000 0000 0000 0000 000000
2017-06-05 05:55:54,0.00,0.04,0.00,25.04,28.87,31.63,13.90,45.25,1020.78,2024.05,3453.02,3082.47,3535.00,600.33,594.71,16.13,0000 0000 0000 0000 000000
2017-06-05 06:00:56,-0.00,0.04,0.00,24.94,28.88,31.66,13.88,45.31,1020.75,2024.00,3453.00,3082.23,3534.99,599.95,594.45,16.18,0000 0000 0000 0000 000000
2017-06-05 06:05:57,0.00,0.04,0.00,24.85,28.90,31.71,13.91,45.42,1020.91,2024.00,3452.99,3082.07,3534.99,600.29,595.04,16.23,0000 0000 0000 0000 000000
2017-06-05 06:10:58,0.00,0.04,0.00,24.76,28.90,31.82,13.87,45.48,1020.92,2024.00,3452.95,3082.02,3534.98,599.69,594.72,16.29,0000 0000 0000 0000 000000
2017-06-05 06:16:00,0.00,0.04,0.00,24.65,28.88,31.88,13.90,45.67,1020.97,2024.03,3452.97,3082.04,3534.98,599.96,595.31,16.34,0000 0000 0000 0000 000000
2017-06-05 06:21:01,-0.00,0.04,0.00,24.56,28.87,31.84,13.91,45.61,1021.00,2024.02,3452.96,3082.06,3534.99,600.06,595.43,16.39,0000 0000 0000 0000 000000
2017-06-05 06:26:02,0.00,0.04,0.00,24.45,28.85,31.81,13.93,45.58,1020.96,2024.03,3452.96,3082.11,3534.99,599.97,595.71,16.44,0000 0000 0000 0000 000000
2017-06-05 06:31:03,-0.01,0.04,0.00,24.37,28.83,31.78,13.87,45.51,1020.68,2024.05,3452.97,3082.22,3534.99,599.69,595.32,16.49,0000 0000 0000 0000 000000
2017-06-05 06:36:04,0.02,0.04,0.00,24.29,28.80,31.72,13.93,45.55,1020.58,2024.34,3452.97,3082.47,3534.99,599.61,595.53,16.54,0000 0000 0000 0000 000000
2017-06-05 06:41:06,0.04,0.04,0.00,24.23,28.77,31.67,13.93,45.53,1020.57,2024.84,3452.90,3082.87,3535.07,599.76,595.65,16.59,0000 0000 0000 0000 000000
2017-06-05 06:46:07,-0.01,0.05,0.00,24.17,28.74,31.57,13.91,45.62,1020.56,2024.99,3452.88,3082.97,3535.49,599.89,595.92,16.64,0000 0000 0000 0000 000000
2017-06-05 06:51:09,-0.00,0.04,0.00,24.13,28.70,31.51,13.93,45.52,1020.56,2024.99,3452.99,3082.99,3535.90,599.95,596.11,16.69,0000 0000 0000 0000 000000
2017-06-05 06:56:10,0.00,0.04,0.00,24.15,28.66,31.40,14.00,45.43,1020.55,2025.00,3452.99,3083.00,3535.99,599.96,595.99,16.74,0000 0000 0000 0000 000000
2017-06-05 07:01:11,0.00,0.04,0.00,24.09,28.62,31.27,13.87,45.63,1020.54,2025.03,3453.04,3083.03,3535.99,599.60,595.75,16.79,0000 0000 0000 0000 000000
2017-06-05 07:06:13,-0.02,0.04,0.00,24.08,28.59,31.24,13.91,45.73,1020.54,2025.13,3453.52,3083.54,3536.02,600.15,596.25,16.84,0000 0000 0000 0000 000000
2017-06-05 07:11:14,0.01,0.04,0.00,24.12,28.56,31.28,13.85,45.57,1020.53,2025.40,3453.96,3083.95,3536.38,599.95,595.99,16.89,0000 0000 0000 0000 000000
2017-06-05 07:16:15,0.03,0.05,0.00,24.17,28.53,31.28,13.93,45.54,1020.54,2025.81,3453.97,3083.97,3536.79,600.21,596.18,16.94,0000 0000 0000 0000 000000
2017-06-05 07:21:16,0.01,0.05,0.00,24.23,28.51,31.29,13.95,45.67,1020.57,2025.89,3453.99,3083.99,3536.93,599.88,595.76,16.99,0000 0000 0000 0000 000000
2017-06-05 07:26:18,0.00,0.05,0.00,24.30,28.50,31.28,13.87,45.64,1020.61,2025.98,3453.99,3083.99,3536.98,599.72,595.48,17.04,0000 0000 0000 0000 000000
2017-06-05 07:31:19,0.00,0.05,0.00,24.38,28.48,31.27,13.91,45.63,1020.57,2025.99,3453.99,3083.99,3536.99,600.48,595.98,17.09,0000 0000 0000 0000 000000
2017-06-05 07:36:20,0.00,0.05,0.00,24.45,28.47,31.27,13.87,45.50,1020.59,2025.99,3453.99,3083.99,3536.99,599.96,595.45,17.14,0000 0000 0000 0000 000000
2017-06-05 07:41:21,0.00,0.05,0.00,24.53,28.47,31.25,13.93,45.51,1020.58,2025.99,3453.99,3083.99,3536.99,600.21,595.54,17.19,0000 0000 0000 0000 000000
2017-06-05 07:46:22,0.00,0.05,0.00,24.60,28.49,31.23,13.85,45.52,1020.55,2025.99,3454.00,3083.99,3536.99,599.84,594.92,17.24,0000 0000 0000 0000 000000
2017-06-05 07:51:23,0.00,0.05,0.00,24.63,28.50,31.16,13.86,45.47,1020.53,2025.99,3454.00,3083.99,3536.97,599.77,594.84,17.29,0000 0000 0000 0000 000000
2017-06-05 07:56:24,0.00,0.05,0.00,24.64,28.51,31.21,13.89,45.53,1020.55,2025.99,3454.00,3083.99,3536.98,599.72,594.83,17.34,0000 0000 0000 0000 000000
2017-06-05 08:01:25,0.00,0.05,0.00,24.68,28.52,31.21,13.92,45.62,1020.61,2025.99,3454.00,3083.99,3536.94,600.47,595.46,17.39,0000 0000 0000 0000 000000
2017-06-05 08:06:27,0.00,0.05,0.00,24.75,28.54,31.23,13.94,45.60,1020.67,2025.98,3453.98,3083.98,3536.69,600.20,595.15,17.44,0000 0000 0000 0000 000000
2017-06-05 08:11:28,0.03,0.05,0.00,24.81,28.56,31.26,13.89,45.63,1020.73,2025.99,3453.56,3083.74,3536.11,600.02,594.83,17.49,0000 0000 0000 0000 000000
2017-06-05 08:16:29,0.01,0.05,0.00,24.86,28.58,31.28,13.84,45.42,1020.84,2025.97,3453.13,3083.22,3536.01,599.78,594.63,17.54,0000 0000 0000 0000 000000
2017-06-05 08:21:30,0.00,0.05,0.00,24.93,28.61,31.31,13.85,45.42,1020.83,2025.92,3453.02,3083.04,3535.99,599.55,594.21,17.59,0000 0000 0000 0000 000000
2017-06-05 08:26:32,-0.01,0.05,0.00,24.98,28.64,31.34,13.89,45.47,1020.87,2025.77,3452.87,3082.99,3535.84,600.03,594.67,17.64,0000 0000 0000 0000 000000
2017-06-05 08:31:33,-0.02,0.05,0.00,25.03,28.66,31.38,13.89,45.46,1020.93,2025.24,3452.39,3082.97,3535.21,599.88,594.59,17.69,0000 0000 0000 0000 000000
2017-06-05 08:36:34,0.01,0.05,0.00,25.06,28.69,31.42,13.90,45.39,1021.01,2025.09,3452.06,3082.64,3535.02,599.71,594.30,17.74,0000 0000 0000 0000 000000
2017-06-05 08:41:35,0.01,0.05,0.00,25.07,28.72,31.45,13.87,45.50,1021.01,2025.07,3452.00,3082.10,3535.00,600.10,594.55,17.79,0000 0000 0000 0000 000000
2017-06-05 08:46:36,-0.00,0.05,0.00,25.07,28.75,31.49,13.87,45.42,1021.01,2025.04,3452.00,3082.00,3534.98,599.96,594.42,17.84,0000 0000 0000 0000 000000
2017-06-05 08:51:37,0.00,0.05,0.00,25.07,28.77,31.53,13.90,45.23,1021.01,2025.00,3451.88,3082.00,3534.72,599.91,594.42,17.89,0000 0000 0000 0000 000000
2017-06-05 08:56:38,0.01,0.05,0.00,25.05,28.80,31.57,13.89,45.30,1021.01,2025.00,3451.63,3082.00,3534.39,599.65,594.17,17.94,0000 0000 0000 0000 000000
2017-06-05 09:01:40,0.01,0.05,0.00,25.03,28.82,31.59,13.98,45.42,1021.01,2025.00,3451.16,3081.97,3534.06,600.36,594.90,17.99,0000 0000 0000 0000 000000
2017-06-05 09:06:41,0.00,0.05,0.00,25.01,28.84,31.61,13.88,45.42,1021.01,2025.00,3451.09,3081.98,3534.03,600.19,594.78,18.04,0000 0000 0000 0000 000000
2017-06-05 09:11:42,0.00,0.05,0.00,24.99,28.85,31.63,13.89,45.38,1021.01,2025.00,3451.01,3081.83,3534.01,599.94,594.62,18.09,0000 0000 0000 0000 000000
2017-06-05 09:16:44,0.00,0.05,0.00,24.96,28.86,31.65,13.86,45.38,1021.01,2024.99,3451.00,3081.55,3534.00,599.91,594.55,18.14,0000 0000 0000 0000 000000
2017-06-05 09:21:45,0.00,0.05,0.00,24.95,28.87,31.66,13.92,45.27,1021.01,2024.99,3450.99,3081.26,3534.00,600.16,594.83,18.19,0000 0000 0000 0000 000000
2017-06-05 09:26:47,0.00,0.05,0.00,24.95,28.87,31.67,13.84,45.40,1021.01,2024.99,3450.96,3081.12,3533.99,599.94,594.58,18.24,0000 0000 0000 0000 000000
2017-06-05 09:31:48,0.00,0.05,0.00,24.93,28.88,31.70,13.85,45.25,1021.01,2024.99,3450.98,3081.05,3533.98,599.97,594.70,18.29,0000 0000 0000 0000 000000
2017-06-05 09:36:49,0.00,0.05,0.00,24.93,28.90,31.71,13.95,45.33,1021.01,2024.98,3450.96,3081.03,3533.99,600.20,594.91,18.34,0000 0000 0000 0000 000000
2017-06-05 09:41:50,0.00,0.05,0.00,24.92,28.90,31.68,13.87,45.30,1021.01,2024.97,3450.89,3081.00,3533.96,599.95,594.70,18.39,0000 0000 0000 0000 000000
2017-06-05 09:46:51,0.01,0.05,0.00,24.92,28.90,31.64,13.92,45.33,1021.01,2024.97,3450.34,3081.00,3533.84,600.00,594.75,18.44,0000 0000 0000 0000 000000
2017-06-05 09:51:53,0.00,0.05,0.00,24.94,28.90,31.68,13.87,45.29,1021.01,2024.96,3450.16,3081.00,3533.66,599.77,594.62,18.49,0000 0000 0000 0000 000000
2017-06-05 09:56:54,-0.00,0.05,0.00,24.96,28.90,31.66,13.90,45.42,1021.01,2024.97,3450.40,3081.00,3533.82,600.07,594.79,18.54,0000 0000 0000 0000 000000
2017-06-05 10:01:55,0.00,0.05,0.00,24.97,28.90,31.65,13.83,45.22,1021.01,2024.96,3450.36,3081.00,3533.68,599.61,594.26,18.59,0000 0000 0000 0000 000000
2017-06-05 10:06:57,0.00,0.05,0.00,24.99,28.90,31.64,13.94,45.32,1021.01,2024.98,3450.21,3081.00,3533.65,600.46,595.10,18.64,0000 0000 0000 0000 000000
2017-06-05 10:11:58,0.01,0.05,0.00,24.98,28.90,31.65,13.81,45.40,1021.01,2024.98,3450.01,3080.98,3533.06,599.84,594.51,18.69,0000 0000 0000 0000 000000
2017-06-05 10:17:00,0.00,0.05,0.00,24.97,28.90,31.64,13.89,45.33,1021.01,2024.98,3450.01,3080.98,3533.03,599.82,594.35,18.74,0000 0000 0000 0000 000000
2017-06-05 10:22:01,0.00,0.05,0.00,24.96,28.90,31.63,13.82,45.32,1021.01,2024.99,3450.00,3080.99,3533.06,600.06,594.66,18.79,0000 0000 0000 0000 000000
2017-06-05 10:27:02,0.00,0.05,0.00,24.98,28.90,31.62,13.89,45.42,1021.01,2024.99,3450.01,3080.99,3533.04,600.29,594.83,18.84,0000 0000 0000 0000 000000
2017-06-05 10:32:04,0.00,0.05,0.00,25.01,28.90,31.61,13.89,45.48,1021.01,2024.98,3450.00,3080.98,3533.00,600.00,594.56,18.89,0000 0000 0000 0000 000000
2017-06-05 10:37:05,0.00,0.05,0.00,25.05,28.90,31.57,13.78,45.33,1021.01,2024.97,3450.04,3080.99,3533.01,599.73,594.24,18.94,0000 0000 0000 0000 000000
2017-06-05 10:42:06,0.08,0.05,0.00,25.12,28.90,31.52,13.90,45.36,1021.01,2024.97,3448.88,3079.98,3532.36,600.12,594.46,18.99,0000 0000 0000 0000 000000
2017-06-05 10:47:07,0.02,0.06,0.00,25.23,28.91,31.49,13.85,45.32,1021.01,2024.96,3447.67,3079.00,3531.52,599.91,594.06,19.04,0000 0000 0000 0000 000000
2017-06-05 10:52:08,0.09,0.06,0.00,25.36,28.92,31.51,13.85,45.41,1021.03,2024.95,3444.83,3078.01,3529.96,599.89,593.72,19.09,0000 0000 0000 0000 000000
2017-06-05 10:57:10,0.00,0.06,0.00,25.51,28.92,31.57,13.80,45.19,1021.03,2024.75,3444.14,3077.47,3529.36,600.11,593.74,19.14,0000 0000 0000 0000 000000
2017-06-05 11:02:11,0.01,0.06,0.00,25.64,28.94,31.61,13.82,45.27,1021.04,2024.70,3444.02,3077.22,3529.08,599.47,592.81,19.19,0000 0000 0000 0000 000000
2017-06-05 11:07:12,-0.00,0.06,0.00,25.76,28.95,31.67,13.87,45.14,1021.16,2024.65,3444.03,3077.17,3529.06,600.35,593.57,19.24,0000 0000 0000 0000 000000
2017-06-05 11:12:14,-0.02,0.06,0.00,25.87,28.97,31.73,13.80,45.21,1021.21,2024.41,3444.01,3077.05,3529.01,600.36,593.19,19.29,0000 0000 0000 0000 000000
2017-06-05 11:17:15,-0.03,0.06,0.00,25.96,29.00,31.78,13.86,45.05,1021.22,2024.16,3444.00,3077.01,3529.00,600.15,592.99,19.35,0000 0000 0000 0000 000000
2017-06-05 11:22:15,-0.01,0.06,0.00,26.01,29.02,31.83,13.82,45.11,1021.18,2024.02,3443.99,3077.00,3528.99,599.92,592.70,19.40,0000 0000 0000 0000 000000
2017-06-05 11:27:17,-0.00,0.06,0.00,26.06,29.04,31.85,13.74,45.01,1021.07,2024.01,3443.98,3077.00,3528.96,599.91,592.64,19.45,0000 0000 0000 0000 000000
2017-06-05 11:32:18,0.01,0.06,0.00,26.09,29.06,31.87,13.88,45.12,1021.12,2024.00,3443.66,3076.94,3528.53,600.52,593.00,19.50,0000 0000 0000 0000 000000
2017-06-05 11:37:19,0.00,0.06,0.00,26.09,29.08,31.86,13.71,44.94,1021.21,2024.00,3443.49,3076.91,3528.32,599.82,592.35,19.55,0000 0000 0000 0000 000000
2017-06-05 11:42:21,0.02,0.06,0.00,26.07,29.10,31.89,13.76,45.13,1021.24,2024.00,3443.07,3076.52,3528.03,600.05,592.73,19.60,0000 0000 0000 0000 000000
2017-06-05 11:47:22,0.01,0.06,0.00,25.96,29.12,31.91,13.88,45.18,1021.18,2024.00,3443.01,3076.11,3528.00,600.02,592.91,19.65,0000 0000 0000 0000 000000
2017-06-05 11:52:23,0.00,0.06,0.00,25.79,29.13,31.91,13.74,45.05,1021.13,2024.00,3442.91,3076.00,3527.98,599.27,592.39,19.70,0000 0000 0000 0000 000000
2017-06-05 11:57:24,0.00,0.06,0.00,25.63,29.15,31.91,13.84,45.08,1021.06,2023.97,3442.50,3076.00,3527.97,599.85,593.27,19.75,0000 0000 0000 0000 000000
2017-06-05 12:02:25,0.00,0.06,0.00,25.48,29.15,31.90,13.90,45.12,1021.05,2023.96,3442.10,3075.99,3527.86,600.13,593.75,19.80,0000 0000 0000 0000 000000
2017-06-05 12:07:27,0.00,0.06,0.00,25.36,29.15,31.91,13.80,45.23,1021.05,2023.94,3442.06,3075.99,3527.61,599.82,593.71,19.85,0000 0000 0000 0000 000000
2017-06-05 12:12:28,-0.00,0.06,0.00,25.25,29.15,31.92,13.88,45.24,1021.03,2023.90,3442.04,3075.99,3527.52,600.03,594.15,19.90,0000 0000 0000 0000 000000
2017-06-05 12:17:29,-0.00,0.06,0.00,25.15,29.15,31.92,13.87,45.22,1021.04,2023.94,3442.03,3075.98,3527.69,599.71,594.02,19.95,0000 0000 0000 0000 000000
2017-06-05 12:22:30,0.00,0.06,0.00,25.07,29.14,31.91,13.88,45.33,1021.06,2023.94,3442.04,3075.99,3527.72,599.88,594.36,20.00,0000 0000 0000 0000 000000
2017-06-05 12:27:31,-0.00,0.06,0.00,25.00,29.12,31.92,13.88,45.33,1021.11,2023.94,3442.01,3075.99,3527.73,599.56,594.29,20.05,0000 0000 0000 0000 000000
2017-06-05 12:32:33,0.00,0.06,0.00,24.93,29.12,31.91,13.85,45.42,1021.06,2023.97,3442.02,3075.99,3527.90,599.87,594.61,20.10,0000 0000 0000 0000 000000
2017-06-05 12:37:34,0.00,0.06,0.00,24.87,29.10,31.91,13.97,45.39,1021.05,2023.99,3442.06,3075.99,3527.96,600.32,595.22,20.15,0000 0000 0000 0000 000000
2017-06-05 12:42:35,0.00,0.06,0.00,24.83,29.08,31.90,13.94,45.43,1021.02,2023.99,3442.12,3075.99,3527.99,599.75,594.73,20.20,0000 0000 0000 0000 000000
2017-06-05 12:47:36,-0.00,0.06,0.00,24.79,29.07,31.95,13.92,45.54,1021.01,2023.99,3442.40,3076.01,3527.99,599.93,595.04,20.25,0000 0000 0000 0000 000000
2017-06-05 12:52:37,-0.00,0.06,0.00,24.75,29.05,31.92,13.92,45.45,1021.01,2023.99,3442.75,3076.06,3527.99,599.95,595.01,20.30,0000 0000 0000 0000 000000
2017-06-05 12:57:39,-0.00,0.06,0.00,24.69,29.03,31.95,13.96,45.48,1021.01,2023.99,3442.89,3076.20,3528.00,599.89,595.25,20.35,0000 0000 0000 0000 000000